Weather History for KMDJ - January, 2014

Change the Weather History Date:

Sunday, January 19, 2014

  Actual Average Record
Temperature  
Mean Temperature 64 °F -  
Max Temperature 68 °F - - ()
Min Temperature 59 °F - - ()
Degree Days  
Heating Degree Days 2    
Growing Degree Days 14 (Base 50)    
Moisture  
Dew Point 54 °F    
Average Humidity 74    
Maximum Humidity 88    
Minimum Humidity 56    
Precipitation  
Precipitation 0.00 in - - ()
Sea Level Pressure  
Sea Level Pressure 30.21 in    
Wind  
Wind Speed 17 mph (West)    
Max Wind Speed 30 mph    
Max Gust Speed 38 mph    
Visibility 10 miles    
Events      
T = Trace of Precipitation, MM = Missing Value Source: NWS Daily Summary

Daily Weather History Graph

Daily Weather History Graph

Search for Another Location

Airport or City:

Trip Planner

Search our weather history database for the weather conditions in past years. The results will help you decide how hot, cold, wet, or windy it might be!

Date:

Astronomy

Jan. 19, 2014 Rise Set
Actual Time 6:52 AM CST 5:27 PM CST
Civil Twilight 6:27 AM CST 5:53 PM CST
Nautical Twilight 5:58 AM CST 6:21 PM CST
Astronomical Twilight 5:29 AM CST 6:50 PM CST
Moon 8:44 PM CST (1/19) 8:41 AM CST (1/19)
Length of Visible Light 11h 26m
Length of Day
10h 35m
Waning Gibbous, 89% of the Moon is Illuminated
Jan 19
Waning Gibbous
Jan 23
Last Quarter
Jan 30
New
Feb 6
First Quarter
Feb 14
Full

Hourly Weather History & Observations

Time (CST) Temp. Dew Point Humidity Pressure Visibility Wind Dir Wind Speed Gust Speed Precip Events Conditions
12:15 AM 66.2 °F 50.0 °F 56% 30.18 in 10.0 mi SW 25.3 mph 33.4 mph N/A   Overcast
12:35 AM 66.2 °F 51.8 °F 60% 30.18 in 10.0 mi SW 24.2 mph 38.0 mph N/A   Overcast
12:55 AM 66.2 °F 53.6 °F 64% 30.17 in 10.0 mi SW 24.2 mph 29.9 mph N/A   Overcast
1:15 AM 66.2 °F 53.6 °F 64% 30.17 in 10.0 mi SW 24.2 mph 31.1 mph N/A   Overcast
1:35 AM 66.2 °F 53.6 °F 64% 30.16 in 10.0 mi SW 18.4 mph 28.8 mph N/A   Mostly Cloudy
1:55 AM 66.2 °F 55.4 °F 68% 30.16 in 10.0 mi SW 24.2 mph 33.4 mph N/A   Mostly Cloudy
2:15 AM 66.2 °F 55.4 °F 68% 30.15 in 10.0 mi SW 26.5 mph 34.5 mph N/A   Mostly Cloudy
2:35 AM 66.2 °F 57.2 °F 73% 30.16 in 10.0 mi SW 25.3 mph 33.4 mph N/A   Mostly Cloudy
2:55 AM 66.2 °F 57.2 °F 73% 30.16 in 10.0 mi SW 29.9 mph - N/A   Mostly Cloudy
3:15 AM 66.2 °F 57.2 °F 73% 30.16 in 10.0 mi SW 27.6 mph 34.5 mph N/A   Mostly Cloudy
3:35 AM 66.2 °F 55.4 °F 68% 30.16 in 10.0 mi SW 24.2 mph 34.5 mph N/A   Mostly Cloudy
3:55 AM 68.0 °F 55.4 °F 64% 30.16 in 10.0 mi WSW 25.3 mph 32.2 mph N/A   Overcast
4:15 AM 68.0 °F 55.4 °F 64% 30.17 in 10.0 mi WSW 26.5 mph - N/A   Overcast
4:35 AM 68.0 °F 57.2 °F 68% 30.18 in 10.0 mi WSW 23.0 mph 29.9 mph N/A   Overcast
4:55 AM 66.2 °F 57.2 °F 73% 30.17 in 10.0 mi WSW 23.0 mph - N/A   Mostly Cloudy
5:15 AM 66.2 °F 57.2 °F 73% 30.18 in 10.0 mi West 16.1 mph 27.6 mph N/A   Overcast
5:35 AM 66.2 °F 59.0 °F 78% 30.19 in 10.0 mi West 18.4 mph - N/A   Overcast
5:55 AM 66.2 °F 59.0 °F 78% 30.19 in 10.0 mi West 19.6 mph - N/A   Mostly Cloudy
6:15 AM 66.2 °F 59.0 °F 78% 30.20 in 10.0 mi West 20.7 mph - N/A   Mostly Cloudy
6:35 AM 66.2 °F 59.0 °F 78% 30.20 in 10.0 mi West 16.1 mph 24.2 mph N/A   Scattered Clouds
6:55 AM 66.2 °F 60.8 °F 83% 30.21 in 10.0 mi West 20.7 mph - N/A   Scattered Clouds
7:15 AM 66.2 °F 59.0 °F 78% 30.21 in 10.0 mi West 20.7 mph 31.1 mph N/A   Mostly Cloudy
7:35 AM 64.4 °F 59.0 °F 83% 30.22 in 10.0 mi West 17.3 mph - N/A   Mostly Cloudy
7:55 AM 66.2 °F 59.0 °F 78% 30.23 in 10.0 mi West 20.7 mph - N/A   Partly Cloudy
8:15 AM 66.2 °F 59.0 °F 78% 30.23 in 10.0 mi West 17.3 mph - N/A   Clear
8:35 AM 64.4 °F 59.0 °F 83% 30.24 in 10.0 mi West 16.1 mph - N/A   Clear
8:55 AM 64.4 °F 59.0 °F 83% 30.25 in 10.0 mi WNW 16.1 mph - N/A   Clear
9:15 AM 64.4 °F 59.0 °F 83% 30.26 in 10.0 mi WNW 16.1 mph - N/A   Clear
9:35 AM 62.6 °F 59.0 °F 88% 30.26 in 10.0 mi WNW 19.6 mph - N/A   Partly Cloudy
9:55 AM 60.8 °F 55.4 °F 82% 30.27 in 10.0 mi NNW 21.9 mph - N/A   Scattered Clouds
10:15 AM 60.8 °F 55.4 °F 82% 30.27 in 10.0 mi NNW 20.7 mph - N/A   Clear
10:35 AM 60.8 °F 55.4 °F 82% 30.27 in 10.0 mi NW 16.1 mph - N/A   Clear
10:55 AM 60.8 °F 55.4 °F 82% 30.27 in 10.0 mi NNW 16.1 mph - N/A   Clear
11:15 AM 60.8 °F 55.4 °F 82% 30.27 in - NNW 13.8 mph - N/A   Clear
11:35 AM 59.0 °F 53.6 °F 82% 30.25 in - NNW 12.7 mph - N/A   Clear
11:55 AM 59.0 °F 53.6 °F 82% 30.25 in 10.0 mi NNW 12.7 mph - N/A   Clear
12:15 PM 59.0 °F 53.6 °F 82% 30.24 in 10.0 mi North 15.0 mph - N/A   Clear
12:35 PM 59.0 °F 51.8 °F 77% 30.23 in 10.0 mi North 12.7 mph - N/A   Clear
12:55 PM 59.0 °F 51.8 °F 77% 30.22 in 10.0 mi North 12.7 mph - N/A   Clear
1:15 PM 59.0 °F 50.0 °F 72% 30.22 in 10.0 mi North 11.5 mph - N/A   Clear
1:35 PM 59.0 °F 50.0 °F 72% 30.21 in 10.0 mi North 9.2 mph - N/A   Clear
1:55 PM 59.0 °F 51.8 °F 77% 30.21 in 10.0 mi North 8.1 mph - N/A   Clear
2:15 PM 59.0 °F 51.8 °F 77% 30.21 in 10.0 mi NNE 8.1 mph - N/A   Clear
2:35 PM 59.0 °F 51.8 °F 77% 30.21 in 10.0 mi NNE 5.8 mph - N/A   Clear
2:55 PM 59.0 °F 51.8 °F 77% 30.20 in 10.0 mi NNE 5.8 mph - N/A   Clear
3:15 PM 59.0 °F 51.8 °F 77% 30.20 in 10.0 mi NNE 3.5 mph - N/A   Clear
3:35 PM 59.0 °F 51.8 °F 77% 30.19 in 10.0 mi Calm Calm - N/A   Clear
3:55 PM 59.0 °F 51.8 °F 77% 30.20 in 10.0 mi East 3.5 mph - N/A   Clear
4:15 PM 59.0 °F 51.8 °F 77% 30.20 in 10.0 mi Calm Calm - N/A   Clear
4:35 PM 59.0 °F 51.8 °F 77% 30.21 in 10.0 mi Calm Calm - N/A   Clear
4:55 PM 59.0 °F 51.8 °F 77% 30.20 in 10.0 mi Calm Calm - N/A   Clear
5:15 PM 59.0 °F 51.8 °F 77% 30.21 in 10.0 mi Calm Calm - N/A   Clear
5:35 PM 59.0 °F 51.8 °F 77% 30.21 in 10.0 mi Calm Calm - N/A   Partly Cloudy
5:55 PM 59.0 °F 51.8 °F 77% 30.20 in 10.0 mi Calm Calm - N/A   Scattered Clouds
6:15 PM 59.0 °F 51.8 °F 77% 30.20 in 10.0 mi Calm Calm - N/A   Scattered Clouds
6:35 PM 59.0 °F 51.8 °F 77% 30.21 in 10.0 mi Calm Calm - N/A   Scattered Clouds
6:55 PM 59.0 °F 50.0 °F 72% 30.21 in 10.0 mi South 3.5 mph - N/A   Scattered Clouds
7:15 PM 59.0 °F 50.0 °F 72% 30.21 in 10.0 mi Calm Calm - N/A   Mostly Cloudy
7:35 PM 60.8 °F 50.0 °F 68% 30.22 in 10.0 mi Calm Calm - N/A   Scattered Clouds
7:55 PM 60.8 °F 48.2 °F 63% 30.22 in 10.0 mi SW 3.5 mph - N/A   Clear
8:15 PM 60.8 °F 48.2 °F 63% 30.22 in 10.0 mi SW 3.5 mph - N/A   Clear
8:35 PM 60.8 °F 48.2 °F 63% 30.22 in 10.0 mi Variable 3.5 mph - N/A   Clear
8:55 PM 60.8 °F 48.2 °F 63% 30.22 in 10.0 mi Variable 5.8 mph - N/A   Clear
9:15 PM 60.8 °F 48.2 °F 63% 30.22 in 10.0 mi Variable 5.8 mph - N/A   Clear
9:35 PM 60.8 °F 51.8 °F 72% 30.22 in 10.0 mi Variable 5.8 mph - N/A   Clear
9:55 PM 60.8 °F 51.8 °F 72% 30.22 in 10.0 mi Variable 3.5 mph - N/A   Clear
10:15 PM 60.8 °F 51.8 °F 72% 30.22 in 10.0 mi West 6.9 mph - N/A   Clear
10:35 PM 60.8 °F 50.0 °F 68% 30.21 in 10.0 mi West 9.2 mph - N/A   Clear
10:55 PM 60.8 °F 50.0 °F 68% 30.21 in 10.0 mi West 10.4 mph - N/A   Partly Cloudy
11:15 PM 60.8 °F 48.2 °F 63% 30.20 in 10.0 mi West 9.2 mph - N/A   Clear
11:35 PM 60.8 °F 50.0 °F 68% 30.19 in 10.0 mi West 10.4 mph - N/A   Clear
11:55 PM 60.8 °F 48.2 °F 63% 30.19 in 10.0 mi West 10.4 mph - N/A   Clear